This is the latest recevied weather packets stored in our database for station/object KQ4NAL. If no packets are shown the sender has not sent any weather packets the latest 1 day(s).
| Time | Temp. | Humidity | Pressure | Rain* | Wind** | Luminosity | Snow |
|---|---|---|---|---|---|---|---|
| 1778032525 | 15° C | 99% | 1008.6 hPa | 0 mm | 0 m/s | 0 W/m² | - |
| 1778032221 | 15° C | 99% | 1008.5 hPa | 0 mm | 0 m/s | 0 W/m² | - |
| 1778031919 | 15° C | 99% | 1008.2 hPa | 0 mm | 0 m/s | 0 W/m² | - |
| 1778031615 | 15° C | 99% | 1008.7 hPa | 0 mm | 0 m/s | 0 W/m² | - |
| 1778031313 | 15° C | 99% | 1008.6 hPa | 1.27 mm | 0 m/s | 0 W/m² | - |
| 1778031009 | 15° C | 99% | 1008.7 hPa | 1.27 mm | 0 m/s | 0 W/m² | - |
| 1778030705 | 15° C | 99% | 1009.1 hPa | 1.78 mm | 1.34 m/s, 351° | 0 W/m² | - |
| 1778030403 | 15° C | 99% | 1008.6 hPa | 1.78 mm | 0.45 m/s, 318° | 0 W/m² | - |
| 1778030100 | 15° C | 99% | 1008.5 hPa | 0 mm | 0 m/s | 0 W/m² | - |
| 1778029796 | 15° C | 99% | 1007.9 hPa | 0 mm | 0 m/s | 0 W/m² | - |
| 1778029496 | 15° C | 99% | 1007.8 hPa | 0 mm | 0.89 m/s, 314° | 0 W/m² | - |
| 1778029191 | 15° C | 99% | 1007.7 hPa | 0 mm | 1.34 m/s, 162° | 0 W/m² | - |
| 1778028889 | 15° C | 99% | 1007.7 hPa | 0 mm | 0.89 m/s, 50° | 0 W/m² | - |
| 1778028584 | 15° C | 99% | 1007.8 hPa | 0 mm | 1.34 m/s, 167° | 0 W/m² | - |
| 1778028282 | 15° C | 99% | 1007.9 hPa | 0 mm | 0.89 m/s, 38° | 0 W/m² | - |
| 1778027978 | 15° C | 99% | 1007.9 hPa | 0 mm | 1.34 m/s, 111° | 0 W/m² | - |
| 1778027675 | 15° C | 99% | 1007.8 hPa | 0 mm | 1.34 m/s, 199° | 0 W/m² | - |
| 1778027371 | 15° C | 99% | 1007.9 hPa | 0 mm | 1.34 m/s, 147° | 0 W/m² | - |
| 1778027067 | 15.56° C | 99% | 1007.8 hPa | 0 mm | 1.79 m/s, 178° | 1 W/m² | - |
| 1778026763 | 15.56° C | 99% | 1008.4 hPa | 0 mm | 1.34 m/s, 211° | 0 W/m² | - |
| 1778026460 | 15.56° C | 99% | 1008 hPa | 1.27 mm | 0 m/s | 3 W/m² | - |
| 1778026157 | 15.56° C | 99% | 1008.2 hPa | 1.27 mm | 0.45 m/s, 23° | 10 W/m² | - |
| 1778025855 | 15.56° C | 99% | 1008 hPa | 1.78 mm | 0.89 m/s, 207° | 12 W/m² | - |
| 1778025551 | 15.56° C | 99% | 1007.7 hPa | 1.78 mm | 0.89 m/s, 45° | 6 W/m² | - |
| 1778025250 | 15.56° C | 99% | 1007.9 hPa | 0 mm | 0.89 m/s, 213° | 7 W/m² | - |
* Rain latest hour (hover to see other rain measurements)
** Current wind speed in m/s (hover to see current wind gust speed)